date,City,No. Stations,Air Quality,Index Value,Prominent Pollutant
2019-09-23,Yadgir,1.0,Good,42,PM10
2019-09-24,Yadgir,1.0,Satisfactory,52,OZONE
2019-09-25,Yadgir,1.0,Satisfactory,54,OZONE
2019-09-26,Yadgir,1.0,Good,46,OZONE
2019-09-27,Yadgir,1.0,Good,37,OZONE
2019-09-28,Yadgir,1.0,Good,42,OZONE
2019-09-29,Yadgir,1.0,Good,37,OZONE
2019-10-01,Yadgir,1.0,Satisfactory,62,OZONE
2019-10-02,Yadgir,1.0,Satisfactory,59,OZONE
2019-10-03,Yadgir,1.0,Satisfactory,59,OZONE
2019-10-04,Yadgir,1.0,Satisfactory,54,OZONE
2019-10-05,Yadgir,1.0,Satisfactory,77,OZONE
2019-10-06,Yadgir,1.0,Satisfactory,66,OZONE
2019-10-07,Yadgir,1.0,Satisfactory,83,OZONE
2019-10-08,Yadgir,1.0,Satisfactory,57,OZONE
2019-10-10,Yadgir,1.0,Satisfactory,67,OZONE
2019-10-11,Yadgir,1.0,Satisfactory,79,OZONE
2019-10-12,Yadgir,1.0,Satisfactory,71,OZONE
2019-10-13,Yadgir,1.0,Satisfactory,53,OZONE
2019-10-14,Yadgir,1.0,Satisfactory,51,OZONE
2019-10-15,Yadgir,1.0,Satisfactory,89,PM2.5
2019-10-16,Yadgir,1.0,Satisfactory,75,OZONE
2019-10-17,Yadgir,1.0,Moderate,102,PM2.5
2019-10-18,Yadgir,1.0,Good,38,OZONE
2019-10-19,Yadgir,1.0,Good,46,OZONE
2019-10-20,Yadgir,1.0,Good,47,OZONE
2019-10-21,Yadgir,1.0,Good,41,OZONE
2019-10-22,Yadgir,1.0,Satisfactory,57,OZONE
2019-10-23,Yadgir,1.0,Good,37,CO
2019-10-24,Yadgir,1.0,Good,26,OZONE
2019-10-25,Yadgir,1.0,Good,40,OZONE
2019-10-26,Yadgir,1.0,Good,38,OZONE
2019-10-27,Yadgir,1.0,Good,48,OZONE
2019-10-28,Yadgir,1.0,Good,38,OZONE
2019-10-29,Yadgir,1.0,Satisfactory,54,OZONE
2019-10-31,Yadgir,1.0,Good,39,OZONE
2019-11-01,Yadgir,1.0,Good,49,OZONE
2019-11-02,Yadgir,1.0,Good,38,OZONE
2019-11-03,Yadgir,1.0,Good,47,OZONE
2019-11-04,Yadgir,1.0,Satisfactory,52,OZONE
2019-11-05,Yadgir,1.0,Satisfactory,86,OZONE
2019-11-06,Yadgir,1.0,Moderate,107,PM2.5
2019-11-07,Yadgir,1.0,Satisfactory,84,PM2.5
2019-11-08,Yadgir,1.0,Satisfactory,69,PM2.5
2019-11-09,Yadgir,1.0,Satisfactory,76,OZONE
2019-11-10,Yadgir,1.0,Moderate,163,OZONE
2019-11-11,Yadgir,1.0,Satisfactory,90,OZONE
2019-11-12,Yadgir,1.0,Satisfactory,86,OZONE
2019-11-13,Yadgir,1.0,Satisfactory,90,OZONE
2019-11-14,Yadgir,1.0,Satisfactory,82,OZONE
2019-11-15,Yadgir,1.0,Satisfactory,98,PM2.5
2019-11-16,Yadgir,1.0,Moderate,105,PM2.5
2019-11-17,Yadgir,1.0,Satisfactory,93,PM2.5
2019-11-18,Yadgir,1.0,Moderate,146,PM2.5
2019-11-19,Yadgir,1.0,Moderate,117,PM2.5
2019-11-20,Yadgir,1.0,Moderate,103,PM2.5
2019-11-21,Yadgir,1.0,Moderate,155,PM2.5
2019-11-22,Yadgir,1.0,Moderate,111,PM2.5
2019-11-23,Yadgir,1.0,Satisfactory,79,PM2.5
2019-11-24,Yadgir,1.0,Satisfactory,98,PM2.5
2019-11-25,Yadgir,1.0,Moderate,103,PM2.5
2019-11-26,Yadgir,1.0,Moderate,128,PM2.5
2019-11-27,Yadgir,1.0,Moderate,110,PM2.5
2019-11-28,Yadgir,1.0,Satisfactory,82,PM2.5
2019-11-29,Yadgir,1.0,Satisfactory,71,PM2.5
2019-11-30,Yadgir,1.0,Satisfactory,63,PM2.5
2019-12-01,Yadgir,1.0,Satisfactory,63,PM10
2019-12-02,Yadgir,1.0,Good,41,PM2.5
2019-12-03,Yadgir,1.0,Good,50,PM2.5
2019-12-04,Yadgir,1.0,Moderate,107,PM2.5
2019-12-05,Yadgir,1.0,Moderate,130,PM2.5
2019-12-06,Yadgir,1.0,Moderate,148,PM2.5
2019-12-07,Yadgir,1.0,Moderate,151,PM2.5
2019-12-08,Yadgir,1.0,Satisfactory,76,PM2.5
2019-12-09,Yadgir,1.0,Satisfactory,75,O3
2019-12-10,Yadgir,1.0,Satisfactory,64,O3
2019-12-11,Yadgir,1.0,Satisfactory,60,PM10
2019-12-12,Yadgir,1.0,Satisfactory,67,PM10
2019-12-13,Yadgir,1.0,Satisfactory,62,PM10
2019-12-14,Yadgir,1.0,Satisfactory,56,PM10
2019-12-15,Yadgir,1.0,Satisfactory,63,O3
2019-12-16,Yadgir,1.0,Satisfactory,60,PM2.5
2019-12-17,Yadgir,1.0,Satisfactory,73,O3
2019-12-18,Yadgir,1.0,Satisfactory,97,PM2.5
2019-12-19,Yadgir,1.0,Moderate,105,PM2.5
2019-12-21,Yadgir,1.0,Moderate,123,PM2.5
2019-12-22,Yadgir,1.0,Moderate,128,PM2.5
2019-12-23,Yadgir,1.0,Moderate,102,PM2.5
2019-12-24,Yadgir,1.0,Satisfactory,90,PM2.5
2019-12-25,Yadgir,1.0,Satisfactory,83,PM2.5
2019-12-26,Yadgir,1.0,Satisfactory,93,PM2.5
2019-12-27,Yadgir,1.0,Satisfactory,71,PM2.5
2019-12-28,Yadgir,1.0,Moderate,165,PM2.5
2019-12-29,Yadgir,1.0,Moderate,123,PM2.5
2019-12-30,Yadgir,1.0,Moderate,121,PM2.5
2019-12-31,Yadgir,1.0,Satisfactory,84,PM2.5
2020-01-01,Yadgir,1.0,Satisfactory,66,PM2.5
2020-01-02,Yadgir,1.0,Satisfactory,56,PM2.5
2020-01-03,Yadgir,1.0,Satisfactory,52,PM10
2020-01-04,Yadgir,1.0,Satisfactory,79,PM2.5
2020-01-05,Yadgir,1.0,Satisfactory,97,PM2.5
2020-01-06,Yadgir,1.0,Satisfactory,99,PM2.5
2020-01-07,Yadgir,1.0,Satisfactory,69,PM2.5
2020-01-08,Yadgir,1.0,Satisfactory,63,PM2.5
2020-01-09,Yadgir,1.0,Satisfactory,72,PM2.5
2020-01-10,Yadgir,1.0,Moderate,133,PM2.5
2020-01-11,Yadgir,1.0,Moderate,108,PM2.5
2020-01-12,Yadgir,1.0,Moderate,109,PM2.5
2020-01-13,Yadgir,1.0,Moderate,102,PM2.5
2020-01-14,Yadgir,1.0,Satisfactory,92,PM2.5
2020-01-15,Yadgir,1.0,Satisfactory,75,PM2.5
2020-01-16,Yadgir,1.0,Good,50,PM2.5
2020-01-17,Yadgir,1.0,Satisfactory,60,PM2.5
2020-01-18,Yadgir,1.0,Satisfactory,59,PM10
2020-01-19,Yadgir,1.0,Satisfactory,56,PM10
2020-01-20,Yadgir,1.0,Satisfactory,64,PM10
2020-01-21,Yadgir,1.0,Satisfactory,62,PM10
2020-01-22,Yadgir,1.0,Satisfactory,55,PM2.5
2020-01-23,Yadgir,1.0,Satisfactory,59,PM10
2020-01-24,Yadgir,1.0,Satisfactory,70,PM10
2020-01-25,Yadgir,1.0,Satisfactory,68,PM10
2020-01-26,Yadgir,1.0,Satisfactory,86,PM10
2020-01-27,Yadgir,1.0,Satisfactory,93,PM2.5
2020-01-28,Yadgir,1.0,Satisfactory,87,PM2.5
2020-01-29,Yadgir,1.0,Satisfactory,83,PM10
2020-01-30,Yadgir,1.0,Satisfactory,76,PM10
2020-01-31,Yadgir,1.0,Moderate,123,PM2.5
2020-02-01,Yadgir,1.0,Satisfactory,92,PM2.5
2020-02-02,Yadgir,1.0,Satisfactory,73,PM2.5
2020-02-03,Yadgir,1.0,Satisfactory,65,PM2.5
2020-02-19,Yadgir,1.0,Satisfactory,71,PM10
2020-02-20,Yadgir,1.0,Satisfactory,71,O3
2020-02-21,Yadgir,1.0,Satisfactory,61,O3
2020-02-22,Yadgir,1.0,Satisfactory,56,O3
2020-02-23,Yadgir,1.0,Satisfactory,52,O3
2020-02-24,Yadgir,1.0,Satisfactory,65,O3
2020-02-25,Yadgir,1.0,Satisfactory,66,O3
2020-02-26,Yadgir,1.0,Satisfactory,82,PM10
2020-02-27,Yadgir,1.0,Satisfactory,77,PM10
2020-02-28,Yadgir,1.0,Satisfactory,74,PM10
2020-02-29,Yadgir,1.0,Satisfactory,74,PM10
2020-03-01,Yadgir,1.0,Satisfactory,72,PM10
2020-03-02,Yadgir,1.0,Satisfactory,67,PM10
2020-03-03,Yadgir,1.0,Satisfactory,73,PM10
2020-03-04,Yadgir,1.0,Satisfactory,62,PM10
2020-03-05,Yadgir,1.0,Satisfactory,71,PM10
2020-03-06,Yadgir,1.0,Satisfactory,79,PM10
2020-03-07,Yadgir,1.0,Satisfactory,77,PM10
2020-03-08,Yadgir,1.0,Satisfactory,55,PM10
2020-03-09,Yadgir,1.0,Satisfactory,55,PM10
2020-03-10,Yadgir,1.0,Satisfactory,59,PM2.5
2020-03-11,Yadgir,1.0,Satisfactory,61,PM10
2020-03-12,Yadgir,1.0,Satisfactory,55,PM10
2020-03-13,Yadgir,1.0,Good,41,PM2.5
2020-03-14,Yadgir,1.0,Satisfactory,51,PM10
2020-03-15,Yadgir,1.0,Satisfactory,58,PM10
2020-03-16,Yadgir,1.0,Good,45,PM10
2020-03-17,Yadgir,1.0,Good,46,PM10
2020-03-19,Yadgir,1.0,Satisfactory,59,O3
2020-03-20,Yadgir,1.0,Satisfactory,73,O3
2020-03-21,Yadgir,1.0,Satisfactory,65,PM10
2020-03-22,Yadgir,1.0,Satisfactory,66,PM10
2020-03-23,Yadgir,1.0,Satisfactory,59,O3
2020-03-24,Yadgir,1.0,Satisfactory,64,PM10
2020-03-25,Yadgir,1.0,Satisfactory,55,PM10
2020-03-26,Yadgir,1.0,Good,46,PM10
2020-03-27,Yadgir,1.0,Satisfactory,58,PM10
2020-03-28,Yadgir,1.0,Satisfactory,60,PM10
2020-03-29,Yadgir,1.0,Satisfactory,66,PM10
2020-03-30,Yadgir,1.0,Satisfactory,62,PM10
2020-03-31,Yadgir,1.0,Satisfactory,60,PM10
2020-04-01,Yadgir,1.0,Satisfactory,62,PM10
2020-04-02,Yadgir,1.0,Satisfactory,68,PM10
2020-04-03,Yadgir,1.0,Satisfactory,72,PM10
2020-04-04,Yadgir,1.0,Satisfactory,63,PM10
2020-04-05,Yadgir,1.0,Satisfactory,60,PM10
2020-04-06,Yadgir,1.0,Satisfactory,56,PM10
2020-04-07,Yadgir,1.0,Good,42,PM10
2020-04-08,Yadgir,1.0,Good,32,PM2.5
2020-04-11,Yadgir,1.0,Good,37,PM10
2020-04-12,Yadgir,1.0,Good,38,PM10
2020-04-13,Yadgir,1.0,Satisfactory,56,PM10
2020-04-14,Yadgir,1.0,Satisfactory,72,PM10
2020-04-15,Yadgir,1.0,Satisfactory,72,PM10
2020-04-16,Yadgir,1.0,Satisfactory,74,PM10
2020-04-17,Yadgir,1.0,Satisfactory,65,PM10
2020-04-18,Yadgir,1.0,Satisfactory,58,PM10
2020-05-02,Yadgir,1.0,Satisfactory,51,PM10
2020-05-03,Yadgir,1.0,Satisfactory,52,PM10
2020-05-04,Yadgir,1.0,Satisfactory,57,PM10
2020-05-05,Yadgir,1.0,Satisfactory,76,PM10
2020-05-06,Yadgir,1.0,Satisfactory,62,PM10
2020-05-07,Yadgir,1.0,Satisfactory,58,PM10
2020-05-12,Yadgir,1.0,Good,36,PM2.5
2020-05-13,Yadgir,1.0,Good,48,PM10
2020-05-14,Yadgir,1.0,Satisfactory,54,PM10
2020-05-15,Yadgir,1.0,Good,32,PM10
2020-05-16,Yadgir,1.0,Good,28,PM2.5
2020-05-23,Yadgir,1.0,Satisfactory,78,PM10
2020-05-24,Yadgir,1.0,Satisfactory,84,PM10
2020-05-25,Yadgir,1.0,Satisfactory,80,PM10
2020-05-30,Yadgir,1.0,Good,38,PM10
2020-05-31,Yadgir,1.0,Good,35,PM10
2020-06-01,Yadgir,1.0,Good,26,PM2.5
2020-06-10,Yadgir,1.0,Good,39,PM10
2020-06-11,Yadgir,1.0,Good,22,SO2
2020-06-12,Yadgir,1.0,Good,20,PM2.5
2020-06-20,Yadgir,1.0,Good,47,PM10
2020-06-21,Yadgir,1.0,Good,47,PM10
2020-06-22,Yadgir,1.0,Good,46,PM10
2020-06-23,Yadgir,1.0,Good,48,PM10
2020-06-25,Yadgir,1.0,Satisfactory,54,O3
2020-06-26,Yadgir,1.0,Satisfactory,62,O3
2020-06-28,Yadgir,1.0,Good,37,PM10
2020-06-29,Yadgir,1.0,Good,30,PM10
2020-06-30,Yadgir,1.0,Satisfactory,68,PM2.5
2020-07-01,Yadgir,1.0,Good,28,SO2
2020-07-02,Yadgir,1.0,Good,27,SO2
2020-07-03,Yadgir,1.0,Good,40,PM2.5
2020-07-04,Yadgir,1.0,Good,32,PM10
2020-07-05,Yadgir,1.0,Good,25,PM10
2020-07-07,Yadgir,1.0,Good,45,PM10
2020-10-11,Yadgir,1.0,Good,27,O3
2020-10-12,Yadgir,1.0,Good,21,NO2
2020-10-14,Yadgir,1.0,Good,26,PM10
2020-10-18,Yadgir,1.0,Satisfactory,57,PM10
2020-10-19,Yadgir,1.0,Good,40,PM10
2020-10-20,Yadgir,1.0,Good,32,PM10
2020-10-21,Yadgir,1.0,Good,40,PM2.5
2020-10-22,Yadgir,1.0,Satisfactory,62,PM2.5
2020-10-23,Yadgir,1.0,Satisfactory,99,PM2.5
2020-10-24,Yadgir,1.0,Satisfactory,78,PM10
2020-10-25,Yadgir,1.0,Satisfactory,64,PM10
2020-10-28,Yadgir,1.0,Satisfactory,77,PM10
2020-10-30,Yadgir,1.0,Satisfactory,90,PM10
2020-10-31,Yadgir,1.0,Moderate,151,O3
2020-11-01,Yadgir,1.0,Moderate,173,O3
2020-11-02,Yadgir,1.0,Moderate,118,O3
2020-11-03,Yadgir,1.0,Moderate,111,O3
2020-11-04,Yadgir,1.0,Moderate,105,O3
2020-11-05,Yadgir,1.0,Moderate,102,O3
2020-11-06,Yadgir,1.0,Moderate,107,O3
2020-11-07,Yadgir,1.0,Satisfactory,97,PM10
2020-11-08,Yadgir,1.0,Moderate,104,O3
2020-11-09,Yadgir,1.0,Moderate,114,O3
2020-11-10,Yadgir,1.0,Moderate,116,PM2.5
2020-11-22,Yadgir,1.0,Satisfactory,76,O3
2020-11-23,Yadgir,1.0,Satisfactory,68,PM10
2020-11-24,Yadgir,1.0,Satisfactory,92,O3
2020-11-25,Yadgir,1.0,Satisfactory,73,O3
2020-11-26,Yadgir,1.0,Satisfactory,56,O3
2020-12-03,Yadgir,1.0,Satisfactory,69,O3
2020-12-04,Yadgir,1.0,Satisfactory,59,O3
2020-12-05,Yadgir,1.0,Satisfactory,75,O3
2020-12-06,Yadgir,1.0,Satisfactory,80,O3
2020-12-07,Yadgir,1.0,Satisfactory,69,O3
2020-12-08,Yadgir,1.0,Satisfactory,72,O3
2020-12-09,Yadgir,1.0,Satisfactory,74,O3
2020-12-10,Yadgir,1.0,Satisfactory,74,O3
2020-12-11,Yadgir,1.0,Satisfactory,79,O3
2020-12-12,Yadgir,1.0,Satisfactory,78,O3
2020-12-13,Yadgir,1.0,Satisfactory,84,PM10
2020-12-14,Yadgir,1.0,Satisfactory,72,PM10
2020-12-15,Yadgir,1.0,Satisfactory,68,PM10
2020-12-16,Yadgir,1.0,Satisfactory,73,PM10
2020-12-17,Yadgir,1.0,Satisfactory,68,PM10
2020-12-18,Yadgir,1.0,Satisfactory,85,PM10
2020-12-19,Yadgir,1.0,Moderate,102,PM2.5
2020-12-20,Yadgir,1.0,Moderate,102,PM2.5
2020-12-21,Yadgir,1.0,Satisfactory,94,PM10
2020-12-22,Yadgir,1.0,Satisfactory,96,O3
2020-12-23,Yadgir,1.0,Satisfactory,96,O3
2020-12-24,Yadgir,1.0,Satisfactory,99,PM2.5
2020-12-25,Yadgir,1.0,Moderate,104,O3
2020-12-26,Yadgir,1.0,Moderate,133,PM2.5
2020-12-27,Yadgir,1.0,Moderate,153,PM2.5
2020-12-28,Yadgir,1.0,Moderate,144,PM2.5
2020-12-29,Yadgir,1.0,Moderate,146,PM2.5
2020-12-30,Yadgir,1.0,Moderate,142,PM2.5
2020-12-31,Yadgir,1.0,Moderate,105,PM10
2021-01-01,Yadgir,1.0,Moderate,108,PM10
2021-01-02,Yadgir,1.0,Moderate,126,PM2.5
2021-01-03,Yadgir,1.0,Moderate,144,PM2.5
2021-01-04,Yadgir,1.0,Satisfactory,85,PM10
2021-01-05,Yadgir,1.0,Satisfactory,61,PM10
2021-01-06,Yadgir,1.0,Satisfactory,55,PM10
2021-01-07,Yadgir,1.0,Good,37,O3
2021-01-08,Yadgir,1.0,Satisfactory,73,PM2.5
2021-01-09,Yadgir,1.0,Good,42,PM10
2021-01-10,Yadgir,1.0,Satisfactory,54,O3
2021-01-11,Yadgir,1.0,Satisfactory,75,O3
2021-01-12,Yadgir,1.0,Satisfactory,72,O3
2021-01-13,Yadgir,1.0,Satisfactory,83,PM10
2021-01-14,Yadgir,1.0,Satisfactory,84,PM10
2021-01-15,Yadgir,1.0,Satisfactory,76,PM10
2021-01-16,Yadgir,1.0,Satisfactory,88,PM2.5
2021-01-17,Yadgir,1.0,Satisfactory,89,PM10
2021-01-18,Yadgir,1.0,Satisfactory,69,O3
2021-01-20,Yadgir,1.0,Satisfactory,85,PM10
2021-01-21,Yadgir,1.0,Satisfactory,83,PM10
2021-01-22,Yadgir,1.0,Satisfactory,90,PM10
2021-01-23,Yadgir,1.0,Satisfactory,98,PM10
2021-01-24,Yadgir,1.0,Satisfactory,88,PM10
2021-01-25,Yadgir,1.0,Satisfactory,98,PM10
2021-01-26,Yadgir,1.0,Satisfactory,80,PM10
2021-01-27,Yadgir,1.0,Satisfactory,86,PM10
2021-01-28,Yadgir,1.0,Moderate,104,PM10
2021-01-29,Yadgir,1.0,Satisfactory,95,PM10
2021-01-30,Yadgir,1.0,Satisfactory,90,PM10
2021-01-31,Yadgir,1.0,Satisfactory,90,PM10
2021-02-01,Yadgir,1.0,Satisfactory,93,PM10
2021-02-02,Yadgir,1.0,Satisfactory,92,PM10
2021-02-03,Yadgir,1.0,Satisfactory,77,PM10
2021-02-04,Yadgir,1.0,Satisfactory,81,PM10
2021-02-05,Yadgir,1.0,Satisfactory,90,PM10
2021-02-06,Yadgir,1.0,Satisfactory,92,PM10
2021-02-07,Yadgir,1.0,Satisfactory,93,PM10
2021-02-08,Yadgir,1.0,Satisfactory,96,PM10
2021-02-09,Yadgir,1.0,Satisfactory,91,PM10
2021-02-10,Yadgir,1.0,Satisfactory,88,PM10
2021-02-11,Yadgir,1.0,Satisfactory,89,PM10
2021-02-12,Yadgir,1.0,Satisfactory,86,O3
2021-02-13,Yadgir,1.0,Satisfactory,83,PM10
2021-02-14,Yadgir,1.0,Satisfactory,92,PM10
2021-02-15,Yadgir,1.0,Satisfactory,92,PM10
2021-02-16,Yadgir,1.0,Satisfactory,100,PM10
2021-02-17,Yadgir,1.0,Satisfactory,92,PM10
2021-02-18,Yadgir,1.0,Satisfactory,85,PM10
2021-02-19,Yadgir,1.0,Satisfactory,92,PM10
2021-02-20,Yadgir,1.0,Satisfactory,75,O3
2021-02-21,Yadgir,1.0,Satisfactory,54,PM10
2021-02-22,Yadgir,1.0,Satisfactory,55,O3
2021-02-23,Yadgir,1.0,Satisfactory,72,O3
2021-02-24,Yadgir,1.0,Satisfactory,80,O3
2021-02-25,Yadgir,1.0,Satisfactory,89,O3
2021-02-26,Yadgir,1.0,Satisfactory,90,O3
2021-02-27,Yadgir,1.0,Moderate,103,O3
2021-02-28,Yadgir,1.0,Satisfactory,89,O3
2021-03-01,Yadgir,1.0,Satisfactory,86,O3
2021-03-02,Yadgir,1.0,Satisfactory,86,PM10
2021-03-03,Yadgir,1.0,Satisfactory,94,O3
2021-03-04,Yadgir,1.0,Satisfactory,93,O3
2021-03-05,Yadgir,1.0,Satisfactory,88,PM10
2021-03-06,Yadgir,1.0,Moderate,158,O3
2021-03-07,Yadgir,1.0,Moderate,166,O3
2021-03-08,Yadgir,1.0,Moderate,108,O3
2021-03-09,Yadgir,1.0,Moderate,172,O3
2021-03-10,Yadgir,1.0,Moderate,150,O3
2021-03-11,Yadgir,1.0,Satisfactory,69,O3
2021-03-12,Yadgir,1.0,Satisfactory,84,O3
2021-03-13,Yadgir,1.0,Satisfactory,98,O3
2021-03-14,Yadgir,1.0,Moderate,112,O3
2021-03-15,Yadgir,1.0,Moderate,109,O3
2021-03-16,Yadgir,1.0,Moderate,172,O3
2021-03-17,Yadgir,1.0,Moderate,170,O3
2021-03-18,Yadgir,1.0,Moderate,111,O3
2021-03-19,Yadgir,1.0,Moderate,151,O3
2021-03-20,Yadgir,1.0,Satisfactory,94,O3
2021-03-21,Yadgir,1.0,Satisfactory,100,O3
2021-03-22,Yadgir,1.0,Moderate,167,O3
2021-03-23,Yadgir,1.0,Moderate,108,O3
2021-03-24,Yadgir,1.0,Moderate,169,O3
2021-03-25,Yadgir,1.0,Moderate,195,O3
2021-03-26,Yadgir,1.0,Moderate,173,O3
2021-03-27,Yadgir,1.0,Moderate,165,O3
2021-03-28,Yadgir,1.0,Moderate,156,O3
2021-03-29,Yadgir,1.0,Moderate,158,O3
2021-03-30,Yadgir,1.0,Moderate,153,O3
2021-03-31,Yadgir,1.0,Moderate,110,O3
2021-04-01,Yadgir,1.0,Moderate,102,O3
2021-04-02,Yadgir,1.0,Moderate,112,PM10
2021-04-03,Yadgir,1.0,Moderate,109,PM10
2021-04-04,Yadgir,1.0,Poor,223,O3
2021-04-05,Yadgir,1.0,Moderate,156,O3
2021-04-06,Yadgir,1.0,Moderate,160,O3
2021-04-07,Yadgir,1.0,Moderate,105,PM10
2021-04-08,Yadgir,1.0,Satisfactory,84,PM2.5
2021-04-09,Yadgir,1.0,Satisfactory,99,O3
2021-04-10,Yadgir,1.0,Satisfactory,98,O3
2021-04-11,Yadgir,1.0,Satisfactory,57,O3
2021-04-12,Yadgir,1.0,Satisfactory,71,PM10
2021-04-13,Yadgir,1.0,Satisfactory,64,O3
2021-04-14,Yadgir,1.0,Satisfactory,70,O3
2021-04-15,Yadgir,1.0,Satisfactory,77,O3
2021-04-16,Yadgir,1.0,Moderate,162,O3
2021-04-17,Yadgir,1.0,Satisfactory,97,O3
2021-04-18,Yadgir,1.0,Moderate,103,O3
2021-04-19,Yadgir,1.0,Satisfactory,87,O3
2021-04-21,Yadgir,1.0,Moderate,162,O3
2021-04-22,Yadgir,1.0,Moderate,114,O3
2021-04-23,Yadgir,1.0,Satisfactory,92,O3
2021-04-24,Yadgir,1.0,Satisfactory,86,O3
2021-04-25,Yadgir,1.0,Satisfactory,97,O3
2021-04-26,Yadgir,1.0,Moderate,112,O3
2021-04-27,Yadgir,1.0,Moderate,111,O3
2021-04-28,Yadgir,1.0,Moderate,160,O3
2021-04-29,Yadgir,1.0,Moderate,108,O3
2021-04-30,Yadgir,1.0,Moderate,101,O3
2021-05-01,Yadgir,1.0,Satisfactory,87,O3
2021-05-02,Yadgir,1.0,Satisfactory,70,O3
2021-05-03,Yadgir,1.0,Satisfactory,54,O3
2021-05-04,Yadgir,1.0,Good,46,O3
2021-05-05,Yadgir,1.0,Satisfactory,55,O3
2021-05-06,Yadgir,1.0,Satisfactory,52,O3
2021-05-07,Yadgir,1.0,Good,37,O3
2021-05-08,Yadgir,1.0,Good,49,O3
2021-05-09,Yadgir,1.0,Good,45,O3
2021-05-10,Yadgir,1.0,Satisfactory,63,O3
2021-05-11,Yadgir,1.0,Satisfactory,57,O3
2021-05-12,Yadgir,1.0,Good,44,O3
2021-05-13,Yadgir,1.0,Good,36,PM2.5
2021-05-15,Yadgir,1.0,Good,25,O3
2021-05-16,Yadgir,1.0,Good,31,O3
2021-05-17,Yadgir,1.0,Good,30,O3
2021-05-18,Yadgir,1.0,Good,23,O3
2021-05-19,Yadgir,1.0,Good,22,O3
2021-05-20,Yadgir,1.0,Good,33,PM10
2021-05-21,Yadgir,1.0,Satisfactory,82,PM10
2021-05-22,Yadgir,1.0,Satisfactory,60,PM10
2021-05-23,Yadgir,1.0,Satisfactory,58,PM10
2021-05-24,Yadgir,1.0,Good,40,PM10
2021-05-25,Yadgir,1.0,Satisfactory,56,PM10
2021-05-26,Yadgir,1.0,Satisfactory,66,PM10
2021-05-27,Yadgir,1.0,Satisfactory,54,PM10
2021-05-28,Yadgir,1.0,Good,40,PM10
2021-05-30,Yadgir,1.0,Good,30,PM10
2021-05-31,Yadgir,1.0,Good,27,PM2.5
2021-06-01,Yadgir,1.0,Good,21,PM2.5
2021-06-02,Yadgir,1.0,Good,20,O3
2021-06-07,Yadgir,1.0,Good,31,PM10
2021-06-08,Yadgir,1.0,Good,45,PM10
2021-06-09,Yadgir,1.0,Good,30,PM10
2021-06-10,Yadgir,1.0,Good,18,PM10
2021-06-11,Yadgir,1.0,Good,26,PM10
2021-06-12,Yadgir,1.0,Good,20,PM10
2021-06-13,Yadgir,1.0,Good,18,O3
2021-06-14,Yadgir,1.0,Good,16,PM2.5
2021-06-15,Yadgir,1.0,Good,14,PM2.5
2021-06-16,Yadgir,1.0,Good,13,O3
2021-06-17,Yadgir,1.0,Good,18,PM10
2021-06-18,Yadgir,1.0,Good,44,PM10
2021-06-19,Yadgir,1.0,Good,43,PM10
2021-06-20,Yadgir,1.0,Good,45,PM10
2021-06-21,Yadgir,1.0,Moderate,118,PM10
2021-06-22,Yadgir,1.0,Satisfactory,98,PM10
2021-06-23,Yadgir,1.0,Satisfactory,87,PM10
2021-06-24,Yadgir,1.0,Satisfactory,56,PM10
2021-06-25,Yadgir,1.0,Good,35,PM10
2021-06-26,Yadgir,1.0,Good,34,PM10
2021-06-27,Yadgir,1.0,Good,21,PM10
2021-06-28,Yadgir,1.0,Good,27,PM10
2021-06-29,Yadgir,1.0,Good,26,PM10
2021-06-30,Yadgir,1.0,Good,33,PM10
2021-07-01,Yadgir,1.0,Good,27,PM10
2021-07-02,Yadgir,1.0,Good,31,PM10
2021-07-03,Yadgir,1.0,Good,37,PM10
2021-07-04,Yadgir,1.0,Good,37,PM10
2021-07-05,Yadgir,1.0,Good,39,PM10
2021-07-06,Yadgir,1.0,Good,40,PM10
2021-07-07,Yadgir,1.0,Good,35,PM10
2021-07-08,Yadgir,1.0,Good,27,PM10
2021-07-09,Yadgir,1.0,Good,22,PM10
2021-07-10,Yadgir,1.0,Good,22,O3
2021-07-11,Yadgir,1.0,Good,17,O3
2021-07-12,Yadgir,1.0,Good,21,O3
2021-07-13,Yadgir,1.0,Good,22,O3
2021-07-14,Yadgir,1.0,Good,19,O3
2021-07-15,Yadgir,1.0,Good,20,O3
2021-07-16,Yadgir,1.0,Good,22,O3
2021-07-17,Yadgir,1.0,Good,18,PM10
2021-07-18,Yadgir,1.0,Good,16,O3
2021-07-19,Yadgir,1.0,Good,17,O3
2021-07-20,Yadgir,1.0,Good,18,O3
2021-07-21,Yadgir,1.0,Good,18,PM10
2021-07-22,Yadgir,1.0,Good,21,O3
2021-07-23,Yadgir,1.0,Good,30,O3
2021-07-24,Yadgir,1.0,Good,22,PM10
2021-07-25,Yadgir,1.0,Good,30,PM10
2021-07-26,Yadgir,1.0,Good,26,PM10
2021-07-27,Yadgir,1.0,Good,32,PM10
2021-07-28,Yadgir,1.0,Good,27,PM10
2021-07-29,Yadgir,1.0,Good,31,O3
2021-07-30,Yadgir,1.0,Good,31,PM10
2021-07-31,Yadgir,1.0,Good,29,PM10
2021-08-01,Yadgir,1.0,Good,20,O3
2021-08-02,Yadgir,1.0,Good,24,PM10
2021-08-03,Yadgir,1.0,Good,28,PM10
2021-08-04,Yadgir,1.0,Good,20,O3
2021-08-05,Yadgir,1.0,Good,26,PM10
2021-08-06,Yadgir,1.0,Good,29,PM10
2021-08-07,Yadgir,1.0,Good,36,PM10
2021-08-09,Yadgir,1.0,Good,38,PM10
2021-08-11,Yadgir,1.0,Good,36,PM10
2021-08-12,Yadgir,1.0,Good,44,PM10
2021-08-13,Yadgir,1.0,Good,34,PM10
2021-08-14,Yadgir,1.0,Good,43,PM10
2021-08-16,Yadgir,1.0,Good,20,PM2.5
2021-08-17,Yadgir,1.0,Good,26,PM10
2021-08-19,Yadgir,1.0,Good,29,PM10
2021-08-20,Yadgir,1.0,Good,33,PM10
2021-08-21,Yadgir,1.0,Good,24,PM10
2021-08-22,Yadgir,1.0,Good,27,PM10
2021-08-23,Yadgir,1.0,Good,25,O3
2021-08-24,Yadgir,1.0,Good,30,PM10
2021-08-25,Yadgir,1.0,Good,29,PM10
2021-08-26,Yadgir,1.0,Good,22,PM10
2021-08-27,Yadgir,1.0,Good,23,PM10
2021-08-28,Yadgir,1.0,Good,18,PM2.5
2021-08-29,Yadgir,1.0,Good,24,PM10
2021-08-30,Yadgir,1.0,Good,34,PM10
2021-08-31,Yadgir,1.0,Good,45,PM10
2021-09-01,Yadgir,1.0,Good,35,PM10
2021-09-03,Yadgir,1.0,Good,25,PM10
2021-09-04,Yadgir,1.0,Good,31,PM10
2021-09-05,Yadgir,1.0,Good,16,PM10
2021-09-06,Yadgir,1.0,Good,17,PM10
2021-09-07,Yadgir,1.0,Good,15,PM10
2021-09-08,Yadgir,1.0,Good,20,O3
2021-09-09,Yadgir,1.0,Good,20,O3
2021-09-10,Yadgir,1.0,Good,26,PM10
2021-09-11,Yadgir,1.0,Good,21,PM10
2021-09-12,Yadgir,1.0,Good,18,PM10
2021-09-13,Yadgir,1.0,Good,15,O3
2021-09-14,Yadgir,1.0,Good,23,PM10
2021-09-15,Yadgir,1.0,Satisfactory,54,PM10
2021-09-16,Yadgir,1.0,Satisfactory,58,PM10
2021-09-17,Yadgir,1.0,Satisfactory,55,PM10
2021-09-18,Yadgir,1.0,Satisfactory,51,PM10
2021-09-19,Yadgir,1.0,Good,43,PM10
2021-09-20,Yadgir,1.0,Good,31,PM10
2021-09-21,Yadgir,1.0,Good,21,O3
2021-09-22,Yadgir,1.0,Good,18,O3
2021-09-23,Yadgir,1.0,Good,21,O3
2021-09-24,Yadgir,1.0,Satisfactory,55,O3
2021-09-26,Yadgir,1.0,Good,31,O3
2021-09-27,Yadgir,1.0,Good,32,O3
2021-09-28,Yadgir,1.0,Good,33,SO2
2021-09-29,Yadgir,1.0,Good,32,O3
2021-09-30,Yadgir,1.0,Good,30,SO2
2021-10-01,Yadgir,1.0,Good,32,PM10
2021-10-02,Yadgir,1.0,Good,31,SO2
2021-10-03,Yadgir,1.0,Good,38,SO2
2021-10-04,Yadgir,1.0,Good,37,SO2
2021-10-05,Yadgir,1.0,Good,36,SO2
2021-10-06,Yadgir,1.0,Good,32,SO2
2021-10-07,Yadgir,1.0,Good,27,SO2
2021-10-08,Yadgir,1.0,Good,27,SO2
2021-10-10,Yadgir,1.0,Good,41,SO2
2021-10-11,Yadgir,1.0,Good,35,PM10
2021-10-12,Yadgir,1.0,Satisfactory,65,PM10
2021-10-13,Yadgir,1.0,Satisfactory,75,PM10
2021-10-14,Yadgir,1.0,Satisfactory,77,PM10
2021-10-15,Yadgir,1.0,Satisfactory,89,PM10
2021-10-16,Yadgir,1.0,Satisfactory,88,PM10
2021-10-17,Yadgir,1.0,Good,44,PM10
2021-10-18,Yadgir,1.0,Satisfactory,86,PM10
2021-10-19,Yadgir,1.0,Satisfactory,90,PM10
2021-10-20,Yadgir,1.0,Satisfactory,87,PM10
2021-10-21,Yadgir,1.0,Satisfactory,72,PM10
2021-10-26,Yadgir,1.0,Satisfactory,73,PM10
2021-10-27,Yadgir,1.0,Satisfactory,83,PM10
2021-10-28,Yadgir,1.0,Satisfactory,77,PM10
2021-10-29,Yadgir,1.0,Satisfactory,80,PM10
2021-10-30,Yadgir,1.0,Satisfactory,97,PM10
2021-11-03,Yadgir,1.0,Good,32,SO2
2021-11-04,Yadgir,1.0,Good,31,O3
2021-11-06,Yadgir,1.0,Satisfactory,78,PM10
2021-11-07,Yadgir,1.0,Moderate,108,PM10
2021-11-08,Yadgir,1.0,Moderate,128,PM10
2021-11-09,Yadgir,1.0,Moderate,123,PM10
2021-11-10,Yadgir,1.0,Moderate,155,PM2.5
2021-11-11,Yadgir,1.0,Satisfactory,100,PM2.5
2021-11-13,Yadgir,1.0,Good,39,PM2.5
2021-11-14,Yadgir,1.0,Good,35,SO2
2021-11-16,Yadgir,1.0,Good,30,PM10
2021-11-17,Yadgir,1.0,Good,24,SO2
2021-11-18,Yadgir,1.0,Good,33,SO2
2021-11-20,Yadgir,1.0,Good,24,SO2
2021-11-21,Yadgir,1.0,Good,29,SO2
2021-11-22,Yadgir,1.0,Good,31,PM10
2021-11-23,Yadgir,1.0,Good,31,SO2
2021-11-24,Yadgir,1.0,Good,33,PM10
2021-11-25,Yadgir,1.0,Satisfactory,55,PM10
2021-11-26,Yadgir,1.0,Satisfactory,82,PM2.5
2021-11-27,Yadgir,1.0,Satisfactory,84,PM2.5
2021-11-30,Yadgir,1.0,Moderate,113,PM2.5
2021-12-01,Yadgir,1.0,Satisfactory,93,PM2.5
2021-12-03,Yadgir,1.0,Satisfactory,97,PM2.5
2021-12-04,Yadgir,1.0,Moderate,157,PM2.5
2021-12-05,Yadgir,1.0,Moderate,151,PM2.5
2021-12-06,Yadgir,1.0,Moderate,139,PM2.5
2021-12-07,Yadgir,1.0,Satisfactory,76,PM10
2021-12-09,Yadgir,1.0,Satisfactory,74,PM10
2021-12-10,Yadgir,1.0,Satisfactory,53,PM10
2021-12-11,Yadgir,1.0,Satisfactory,58,PM10
2021-12-12,Yadgir,1.0,Satisfactory,72,PM10
2021-12-13,Yadgir,1.0,Satisfactory,75,PM10
2021-12-14,Yadgir,1.0,Satisfactory,77,PM10
2021-12-15,Yadgir,1.0,Moderate,115,PM2.5
2021-12-16,Yadgir,1.0,Moderate,128,PM2.5
2021-12-17,Yadgir,1.0,Moderate,113,PM2.5
2021-12-18,Yadgir,1.0,Satisfactory,94,PM2.5
2021-12-19,Yadgir,1.0,Moderate,109,PM2.5
2021-12-20,Yadgir,1.0,Moderate,148,PM2.5
2021-12-21,Yadgir,1.0,Moderate,166,PM2.5